GW1539 Weather Reports


Display with metric or nautical units.
time (UTC)temp
F
wind
direction
speed
MPH
gust
MPH
rain 1hr
in
rain 24hr
in
rain mn
in
humidity
%
barometer
mb
20260906104533 76 263 0.0 4.0 0.00 0.00 0.00 64 1021.7
20260906101535 74 268 1.0 6.0 0.00 0.00 0.00 66 1021.8
20260906094541 72 246 0.0 8.0 0.00 0.00 0.00 69 1022.2
20260906091544 71 234 3.0 7.0 0.00 0.00 0.00 69 1022.4
20260906084540 70 228 1.0 5.0 0.00 0.00 0.00 72 1022.4
20260906083039 69 228 1.0 4.0 0.00 0.00 0.00 73 1022.4
20260906081535 68 228 0.0 0.0 0.00 0.00 0.00 74 1022.4
20260906080035 68 228 0.0 0.0 0.00 0.00 0.00 75 1022.5
20260906073039 67 228 0.0 0.0 0.00 0.00 0.00 81 1022.5
20260906071526 64 228 0.0 0.0 0.00 0.00 0.00 87 1022.2
20260906064533 61 228 0.0 0.0 0.00 0.00 0.00 95 1022.3
20260906061538 58 228 0.0 0.0 0.00 0.00 0.00 96 1022.0
20260906054544 56 228 0.0 0.0 0.00 0.00 0.00 95 1021.9
20260906051553 56 228 0.0 0.0 0.00 0.00 0.00 95 1021.5
20260906044538 56 228 0.0 0.0 0.00 0.00 0.00 94 1021.2
20260906043044 56 228 0.0 0.0 0.00 0.00 0.00 94 1021.1
20260906040041 56 228 0.0 0.0 0.00 0.00 0.00 94 1020.9
20260906034532 56 228 0.0 0.0 0.00 0.00 0.00 94 1020.8
20260906031531 57 228 0.0 0.0 0.00 0.00 0.00 94 1020.7
20260906024538 57 228 0.0 0.0 0.00 0.00 0.00 94 1020.6
20260906021540 58 228 0.0 0.0 0.00 0.00 0.00 94 1020.7
20260906020048 58 228 0.0 0.0 0.00 0.00 0.00 93 1020.5
20260906013825 58 228 0.0 0.0 0.00 0.00 0.00 92 1020.5
20260906011544 59 228 0.0 0.0 0.00 0.00 0.00 92 1020.4
20260906004531 60 228 0.0 0.0 0.00 0.00 0.00 91 1020.4
20260906001527 61 228 0.0 0.0 0.00 0.00 0.00 91 1020.4
20260905234535 62 228 0.0 0.0 0.00 0.00 0.00 90 1020.3
20260905231535 63 228 0.0 0.0 0.00 0.00 0.00 88 1020.3
20260905224528 64 228 0.0 0.0 0.00 0.00 0.00 88 1020.1
20260905223026 64 228 0.0 0.0 0.00 0.00 0.00 88 1020.1
20260905220108 64 228 0.0 0.0 0.00 0.00 0.00 88 1019.9
20260905214532 64 228 0.0 0.0 0.00 0.00 0.00 91 1019.8
20260905213026 62 228 0.0 0.0 0.00 0.00 0.00 91 1019.7
20260905210046 63 228 0.0 0.0 0.00 0.00 0.00 90 1019.4
20260905203031 64 228 0.0 0.0 0.00 0.00 0.00 88 1019.3
20260905201529 65 228 0.0 1.0 0.00 0.00 0.00 87 1019.1
20260905194533 65 228 0.0 0.0 0.00 0.00 0.00 88 1019.0
20260905191534 66 228 0.0 0.0 0.00 0.00 0.00 87 1018.5
20260905184555 67 228 0.0 0.0 0.00 0.00 0.00 86 1018.1
20260905183037 68 228 0.0 0.0 0.00 0.00 0.00 84 1017.9
20260905180042 69 228 0.0 0.0 0.00 0.00 0.00 81 1017.5
20260905173033 71 228 0.0 0.0 0.00 0.00 0.00 79 1017.1
20260905171529 72 228 0.0 1.0 0.00 0.00 0.00 77 1016.9
20260905164536 74 228 0.0 3.0 0.00 0.00 0.00 73 1016.5
20260905163032 75 228 1.0 4.0 0.00 0.00 0.00 70 1016.3
20260905160109 78 230 1.0 6.0 0.00 0.00 0.00 65 1016.1
20260905153041 79 232 1.0 5.0 0.00 0.00 0.00 63 1015.9
20260905150043 77 355 1.0 4.0 0.00 0.00 0.00 66 1015.8
20260905144531 77 13 0.0 4.0 0.00 0.00 0.00 67 1015.8
20260905143035 78 13 2.0 5.0 0.00 0.00 0.00 65 1015.8
20260905140032 77 249 1.0 4.0 0.00 0.00 0.00 65 1016.0
20260905133047 79 267 4.0 8.0 0.00 0.00 0.00 61 1016.0
20260905130036 79 259 2.0 10.0 0.00 0.00 0.00 61 1016.1
20260905124533 79 216 4.0 10.0 0.00 0.00 0.00 62 1016.1
20260905121543 78 228 4.0 8.0 0.00 0.00 0.00 63 1016.3
20260905114542 77 245 4.0 11.0 0.00 0.00 0.00 64 1016.4
20260905111531 77 230 1.0 5.0 0.00 0.00 0.00 66 1016.4